Lid_Strength_Index
-0 -0 -1 -1 -0 -1 -1 -0 -0 -0 -0 -1 -1 -1 -1 -1 -1 -1 -1 -2 -1 -1 -1 -1 -1 -2 -2 -1 -2 -2 -2 -2 -1 -1 -1 -1 -1 -1 -1 -1 -1 -2 -2
-0 -0 -0 -0 -0 -1 -1 -1 -0 -0 -0 -0 -0 -1 -1 -1 -1 -2 -1 -1 -2 -2 -1 -1 -2 -1 -2 -2 -1 -2 -2 -2 -2 -1 -1 -1 -1 -1 -2 -1 -1 -2 -2
-1 -0 -0 -0 -0 -1 -1 -1 -1 -1 -0 -0 -0 -0 -1 -1 -1 -1 -1 -1 -1 -2 -2 -2 -2 -2 -1 -2 -2 -2 -2 -2 -1 -1 -1 -1 -2 -2 -2 -1 -1 -2 -2
-1 -0 -0 -0 -1 -1 -0 -0 -0 0 0 0 0 -0 -0 -0 -1 -0 -0 -1 -1 -1 -1 -2 -2 -2 -2 -2 -2 -1 -2 -2 -2 -1 -1 -1 -1 -1 -1 -1 -1 -1 -2
-0 -0 -0 -0 -1 -0 -0 0 0 0 1 1 0 0 -0 0 -0 -0 -0 -1 -1 -1 -1 -1 -2 -2 -2 -2 -2 -1 -1 -2 -1 -1 -1 -1 -1 -1 -1 -1 -1 -1 -1
-1 -0 -0 -0 -0 0 0 0 0 0 0 1 1 0 0 0 0 -0 -0 -0 -0 -1 -1 -1 -1 -1 -1 -2 -2 -2 -1 -1 -2 -1 -1 -1 -1 -1 -1 -1 -1 -1 -1
-0 -0 0 -0 -0 0 0 0 0 1 1 0 1 2 1 0 0 -0 -0 0 -1 -1 -1 -1 -1 -1 -1 -2 -2 -2 -2 -1 -1 -1 -1 -1 -1 -1 -1 -1 -1 -1 -0
-0 -0 0 0 -0 0 0 0 0 2 1 1 2 3 4 2 1 1 -0 -1 -0 -1 -0 -0 -1 -1 -2 -1 -2 -2 -2 -2 -1 -1 -1 -1 -1 -1 -1 -1 -1 -1 -0
-0 -0 -0 -0 0 0 1 0 1 1 2 1 1 2 4 5 3 1 0 0 0 0 -0 -1 -1 -1 -1 -1 -2 -2 -2 -1 -1 -1 -1 -1 -1 -1 -1 -1 -1 -1 -1
0 -0 0 0 0 0 0 0 0 1 1 2 1 1 1 1 4 5 1 1 -0 0 -0 -0 -1 -1 -1 -1 -1 -1 -1 -1 -1 -1 -1 -1 -1 -1 -1 -1 -1 -1 -0
0 0 0 0 0 0 -0 0 0 0 1 1 1 2 1 2 2 3 5 3 1 0 -0 -0 -0 -1 -1 -2 -2 -1 -1 -0 -1 -1 -1 -1 -1 -1 -1 -1 -1 -0 0
1 0 0 0 -0 0 0 0 -0 -0 0 0 1 1 2 2 3 3 4 3 3 2 0 0 -0 -0 -1 -1 -1 -0 -1 -0 1 1 0 -0 -1 -1 -1 -1 -0 -0 -1
1 1 0 0 0 -0 -0 -0 -0 -0 0 1 0 1 0 2 1 1 2 3 3 2 1 1 -0 -0 -1 -1 -1 -1 -1 0 2 2 2 1 0 -0 -0 -1 -0 -1 -1
1 0 0 0 -0 -0 -0 -1 0 0 -0 0 -0 0 0 1 1 0 2 3 4 3 2 2 -0 -0 -0 -0 -1 -1 -1 1 2 2 2 2 1 1 0 -0 -0 -1 -1
1 0 0 0 -0 -0 -0 -0 0 0 -0 0 -0 0 0 1 0 1 1 1 3 5 5 2 2 -0 -1 -2 -1 -2 -1 1 1 2 3 3 2 2 1 1 1 0 0
0 0 0 0 -0 -0 -0 -0 -0 -0 0 -0 0 1 0 1 0 0 1 1 1 2 5 2 2 0 -1 -1 -1 -2 -2 0 2 3 3 3 3 3 2 2 2 1 0
0 0 0 0 0 0 -0 -0 -0 0 1 1 0 1 1 0 1 1 1 1 2 2 4 3 1 -0 0 -0 -0 -1 -1 -1 1 3 3 3 4 3 3 3 2 2 1
-0 0 0 0 0 0 -0 0 1 0 1 1 1 1 1 1 0 0 1 1 1 1 2 4 2 1 1 -0 0 0 -0 -1 -0 3 3 4 4 4 4 4 3 3 3
0 -0 -0 0 0 0 0 0 0 0 1 1 1 1 1 1 1 0 1 1 1 1 1 2 3 1 1 0 1 1 1 1 2 2 4 4 4 4 4 4 4 4 4
0 0 -0 0 0 0 0 0 0 1 1 1 0 1 0 1 1 1 1 1 1 1 2 2 3 2 2 1 2 3 3 3 3 3 3 3 3 4 5 5 4 4 5
0 0 0 0 0 0 0 0 0 1 1 1 1 0 -0 0 2 1 0 1 1 2 2 3 3 3 3 3 3 3 3 4 3 3 3 2 2 2 2 3 3 4 6
0 1 1 1 1 1 8 7 3 1 1 1 1 1 0 1 3 6 5 4 1 2 2 3 3 4 3 3 3 3 4 4 5 2 3 3 1 2 1 1 5 7 7
1 1 1 0 1 1 8 7 5 1 1 1 1 1 1 1 1 0 5 6 5 5 2 1 3 3 3 3 3 3 3 3 4 3 3 5 2 3 3 5 7 7 6
0 1 0 0 1 1 8 8 6 0 1 1 1 1 1 1 1 1 1 1 1 1 0 0 0 1 1 2 2 3 2 3 3 3 3 6 3 4 3 2 7 7 6
1 1 0 1 1 1 8 7 3 1 1 1 1 1 1 1 6 7 1 2 2 2 6 7 7 8 9 8 4 2 3 4 5 5 3 4 3 3 3 1 1 6 6
1 1 1 0 3 1 9 8 4 1 2 2 1 1 8 2 8 7 1 1 2 3 2 2 3 4 4 6 6 2 3 4 5 5 3 3 2 2 3 -0 -0 1 2